Location: Unspecified
(0.0000°N, 0.0000°E)
Time: 15:28:05
(UTC+00:00)

ISS - Pass Details

Date: 21 February 2018
Orbit: 403 x 406 km, 51.6° (Epoch: 26 February)

Event Time Altitude Azimuth Distance (km) Brightness Sun altitude
Rises 04:42:56 0° 184° (S) 2,321 0.1 -22.3°
Reaches altitude 10° 04:46:01 10° 153° (SSE) 1,458 -0.5 -21.5°
Maximum altitude 04:47:27 12° 126° (SE) 1,321 -0.4 -21.2°
Drops below altitude 10° 04:48:54 10° 100° (E) 1,454 0.2 -20.8°
Sets 04:51:56 0° 68° (ENE) 2,309 1.0 -20.1°
